KD8DNS Weather Reports


Display with metric or nautical units.
time (UTC)temp
F
wind
direction
speed
MPH
gust
MPH
rain 1hr
in
rain 24hr
in
rain mn
in
humidity
%
barometer
mb
20260503045823 0 7 0.0 0.0 0.00 0.00 0.00 1020.9
20260503045321 0 7 0.0 0.0 0.00 0.00 0.00 1020.8
20260503044817 0 7 0.0 0.0 0.00 0.00 0.00 1021.0
20260503044314 0 7 0.0 1.0 0.00 0.00 0.00 1020.9
20260503043811 0 10 0.0 0.0 0.00 0.00 0.00 1021.0
20260503043308 0 8 0.0 0.0 0.00 0.00 0.00 1020.8
20260503042804 0 5 0.0 0.0 0.00 0.00 0.00 1020.8
20260503042301 0 10 0.0 0.0 0.00 0.00 0.00 1020.9
20260503041756 0 11 0.0 0.0 0.00 0.00 0.00 1020.9
20260503041255 0 10 0.0 0.0 0.00 0.00 0.00 1020.8
20260503040752 0 11 0.0 0.0 0.00 0.00 0.00 1020.9
20260503040250 0 11 0.0 0.0 0.00 0.00 0.00 1020.8
20260503035746 0 12 0.0 0.0 0.00 0.00 0.00 1021.0
20260503035244 0 15 0.0 0.0 0.00 0.00 0.00 1021.0
20260503034741 0 15 0.0 0.0 0.00 0.00 0.00 1021.0
20260503034238 0 20 0.0 0.0 0.00 0.00 0.00 1020.8
20260503033735 0 20 0.0 0.0 0.00 0.00 0.00 1020.9
20260503033232 0 20 0.0 0.0 0.00 0.00 0.00 1020.9
20260503032731 0 20 0.0 0.0 0.00 0.00 0.00 1020.8
20260503032229 0 20 0.0 0.0 0.00 0.00 0.00 1020.8
20260503031725 0 20 0.0 0.0 0.00 0.00 0.00 1021.0
20260503031224 0 20 0.0 0.0 0.00 0.00 0.00 1020.8
20260503030720 0 20 0.0 0.0 0.00 0.00 0.00 1020.9
20260503030216 0 22 0.0 0.0 0.00 0.00 0.00 1021.0
20260503025713 0 22 0.0 0.0 0.00 0.00 0.00 1021.0
20260503025206 0 22 0.0 0.0 0.00 0.00 0.00 1021.1
20260503024702 0 22 0.0 0.0 0.00 0.00 0.00 1020.9
20260503024200 0 22 0.0 0.0 0.00 0.00 0.00 1020.8
20260503023656 0 22 0.0 0.0 0.00 0.00 0.00 1020.9
20260503023153 0 22 0.0 0.0 0.00 0.00 0.00 1020.8
20260503022649 0 22 0.0 0.0 0.00 0.00 0.00 1021.0
20260503022149 0 22 0.0 0.0 0.00 0.00 0.00 1020.9
20260503021646 0 23 0.0 0.0 0.00 0.00 0.00 1020.9
20260503021143 0 23 0.0 0.0 0.00 0.00 0.00 1020.9
20260503020640 0 22 0.0 0.0 0.00 0.00 0.00 1020.6
20260503020137 0 22 0.0 0.0 0.00 0.00 0.00 1020.8
20260503015634 0 22 0.0 0.0 0.00 0.00 0.00 1021.0
20260503015131 0 22 0.0 0.0 0.00 0.00 0.00 1020.8
20260503014627 0 22 0.0 0.0 0.00 0.00 0.00 1020.6
20260503014125 0 23 0.0 0.0 0.00 0.00 0.00 1020.4
20260503013622 0 24 0.0 0.0 0.00 0.00 0.00 1020.4
20260503013120 0 27 0.0 0.0 0.00 0.00 0.00 1020.4
20260503012617 0 24 0.0 0.0 0.00 0.00 0.00 1020.5
20260503012113 0 24 0.0 0.0 0.00 0.00 0.00 1020.3
20260503011610 0 23 0.0 0.0 0.00 0.00 0.00 1020.3
20260503011107 0 25 0.0 0.0 0.00 0.00 0.00 1020.2
20260503010603 0 27 0.0 2.0 0.00 0.00 0.00 1020.2
20260503005557 0 353 0.0 1.0 0.00 0.00 0.00 1020.1
20260503005055 0 30 1.0 2.0 0.00 0.00 0.00 1019.8
20260503004551 0 29 0.0 2.0 0.00 0.00 0.00 1020.0
20260503004050 0 28 0.0 2.0 0.00 0.00 0.00 1020.2
20260503003545 0 26 0.0 1.0 0.00 0.00 0.00 1020.2
20260503003043 0 35 1.0 1.0 0.00 0.00 0.00 1019.9
20260503002540 0 50 0.0 2.0 0.00 0.00 0.00 1019.8
20260503002037 0 42 1.0 3.0 0.00 0.00 0.00 1019.8
20260503001533 0 31 0.0 1.0 0.00 0.00 0.00 1019.7
20260503001031 0 34 1.0 2.0 0.00 0.00 0.00 1019.7
20260503000528 0 28 1.0 2.0 0.00 0.00 0.00 1019.7
20260503000025 0 35 2.0 3.0 0.00 0.00 0.00 1019.8
20260502235521 0 65 1.0 2.0 0.00 0.00 0.00 1019.7
20260502235019 0 58 2.0 5.0 0.00 0.00 0.00 1019.7
20260502234515 0 52 2.0 6.0 0.00 0.00 0.00 1019.5
20260502234012 0 69 0.0 3.0 0.00 0.00 0.00 1019.7
20260502233507 0 75 1.0 2.0 0.00 0.00 0.00 1019.6
20260502233004 0 28 1.0 2.0 0.00 0.00 0.00 1019.5
20260502232501 0 50 1.0 3.0 0.00 0.00 0.00 1019.6
20260502231957 0 35 2.0 5.0 0.00 0.00 0.00 1019.2
20260502231455 0 62 1.0 6.0 0.00 0.00 0.00 1019.5
20260502230953 0 88 3.0 5.0 0.00 0.00 0.00 1019.6
20260502230450 0 358 1.0 5.0 0.00 0.00 0.00 1019.4
20260502225948 0 36 2.0 3.0 0.00 0.00 0.00 1019.4
20260502225444 0 78 0.0 5.0 0.00 0.00 0.00 1019.6
20260502224941 0 125 2.0 2.0 0.00 0.00 0.00 1019.3
20260502224437 0 60 3.0 5.0 0.00 0.00 0.00 1019.6
20260502223934 0 112 1.0 3.0 0.00 0.00 0.00 1019.2
20260502223432 0 66 1.0 5.0 0.00 0.00 0.00 1019.3
20260502222930 0 73 3.0 5.0 0.00 0.00 0.00 1019.2
20260502222427 0 31 0.0 3.0 0.00 0.00 0.00 1019.3
20260502221922 0 48 1.0 3.0 0.00 0.00 0.00 1019.3
20260502221419 0 348 0.0 2.0 0.00 0.00 0.00 1019.3
20260502220916 0 23 4.0 5.0 0.00 0.00 0.00 1019.4
20260502220412 0 29 2.0 3.0 0.00 0.00 0.00 1019.2
20260502215909 0 68 3.0 5.0 0.00 0.00 0.00 1019.0
20260502215406 0 41 2.0 3.0 0.00 0.00 0.00 1019.5
20260502214903 0 56 2.0 2.0 0.00 0.00 0.00 1019.3
20260502214359 0 48 2.0 8.0 0.00 0.00 0.00 1019.0
20260502213857 0 339 2.0 5.0 0.00 0.00 0.00 1019.2
20260502213354 0 37 6.0 7.0 0.00 0.00 0.00 1019.0
20260502212853 0 27 0.0 2.0 0.00 0.00 0.00 1018.9
20260502212351 0 351 3.0 3.0 0.00 0.00 0.00 1019.0
20260502211848 0 96 3.0 5.0 0.00 0.00 0.00 1018.7
20260502211343 0 90 3.0 3.0 0.00 0.00 0.00 1018.9
20260502210841 0 119 2.0 5.0 0.00 0.00 0.00 1018.7
20260502210338 0 18 1.0 5.0 0.00 0.00 0.00 1018.8
20260502205835 0 31 2.0 5.0 0.00 0.00 0.00 1018.9
20260502205331 0 61 1.0 2.0 0.00 0.00 0.00 1018.9
20260502204828 0 65 1.0 3.0 0.00 0.00 0.00 1018.9
20260502204326 0 114 2.0 3.0 0.00 0.00 0.00 1018.8
20260502203823 0 262 1.0 3.0 0.00 0.00 0.00 1018.9
20260502203320 0 143 2.0 2.0 0.00 0.00 0.00 1019.0
20260502202815 0 123 2.0 6.0 0.00 0.00 0.00 1019.0
20260502202313 0 69 5.0 7.0 0.00 0.00 0.00 1018.8
20260502201811 0 28 1.0 3.0 0.00 0.00 0.00 1018.8
20260502201306 0 32 2.0 7.0 0.00 0.00 0.00 1019.0
20260502200803 0 74 2.0 3.0 0.00 0.00 0.00 1019.1
20260502200259 0 64 1.0 2.0 0.00 0.00 0.00 1019.2
20260502195757 0 96 2.0 5.0 0.00 0.00 0.00 1019.1
20260502195254 0 54 2.0 7.0 0.00 0.00 0.00 1019.2
20260502194750 0 74 1.0 5.0 0.00 0.00 0.00 1019.3
20260502194247 0 80 2.0 3.0 0.00 0.00 0.00 1019.2
20260502193743 0 17 2.0 5.0 0.00 0.00 0.00 1019.3
20260502193241 0 19 1.0 2.0 0.00 0.00 0.00 1019.1
20260502192741 0 70 3.0 6.0 0.00 0.00 0.00 1019.2
20260502192238 0 227 2.0 7.0 0.00 0.00 0.00 1019.5
20260502191735 0 59 3.0 6.0 0.00 0.00 0.00 1019.2
20260502191233 0 65 2.0 3.0 0.00 0.00 0.00 1019.4
20260502190730 0 95 2.0 5.0 0.00 0.00 0.00 1019.5
20260502190227 0 353 3.0 7.0 0.00 0.00 0.00 1019.4
20260502185727 0 7 0.0 2.0 0.00 0.00 0.00 1019.5
20260502185224 0 107 2.0 5.0 0.00 0.00 0.00 1019.5
20260502184720 0 121 4.0 6.0 0.00 0.00 0.00 1019.6
20260502184216 0 15 2.0 3.0 0.00 0.00 0.00 1019.3
20260502183713 0 345 6.0 8.0 0.00 0.00 0.00 1019.7
20260502183209 0 340 3.0 6.0 0.00 0.00 0.00 1019.6
20260502182704 0 99 2.0 9.0 0.00 0.00 0.00 1019.6
20260502182200 0 124 3.0 10.0 0.00 0.00 0.00 1019.6
20260502181657 0 339 2.0 8.0 0.00 0.00 0.00 1019.6
20260502181156 0 346 3.0 6.0 0.00 0.00 0.00 1019.6
20260502180653 0 84 4.0 6.0 0.00 0.00 0.00 1019.7
20260502180150 0 329 3.0 7.0 0.00 0.00 0.00 1019.8
20260502170114 0 355 2.0 6.0 0.00 0.00 0.00 1019.9
20260502164101 0 4 3.0 5.0 0.00 0.00 0.00 1020.1
20260502163556 0 298 1.0 5.0 0.00 0.00 0.00 1020.3
20260502163054 0 80 1.0 3.0 0.00 0.00 0.00 1020.1
20260502162550 0 345 3.0 8.0 0.00 0.00 0.00 1020.1
20260502162048 0 97 5.0 6.0 0.00 0.00 0.00 1020.4
20260502161544 0 19 3.0 5.0 0.00 0.00 0.00 1020.2
20260502161042 0 12 1.0 6.0 0.00 0.00 0.00 1020.3
20260502160540 0 91 1.0 5.0 0.00 0.00 0.00 1020.6
20260502151953 0 66 3.0 6.0 0.00 0.00 0.00 1020.5
20260502151449 0 64 3.0 7.0 0.00 0.00 0.00 1020.2
20260502150947 0 48 1.0 6.0 0.00 0.00 0.00 1020.3
20260502150444 0 31 2.0 3.0 0.00 0.00 0.00 1020.4
20260502130329 0 20 2.0 6.0 0.00 0.00 0.00 1020.3
20260502123815 0 28 1.0 5.0 0.00 0.00 0.00 1020.1
20260502123312 0 32 1.0 3.0 0.00 0.00 0.00 1020.0
20260502122809 0 25 0.0 2.0 0.00 0.00 0.00 1019.9
20260502122306 0 339 1.0 2.0 0.00 0.00 0.00 1019.8
20260502121803 0 5 1.0 7.0 0.00 0.00 0.00 1019.9
20260502121300 0 34 1.0 2.0 0.00 0.00 0.00 1020.0
20260502120757 0 4 1.0 2.0 0.00 0.00 0.00 1020.0
20260502120253 0 8 0.0 2.0 0.00 0.00 0.00 1019.9
20260502115752 0 353 0.0 2.0 0.00 0.00 0.00 1019.5
20260502115248 0 18 0.0 0.0 0.00 0.00 0.00 1019.5
20260502114744 0 22 0.0 0.0 0.00 0.00 0.00 1019.6
20260502114241 0 12 0.0 1.0 0.00 0.00 0.00 1019.6
20260502113738 0 15 0.0 0.0 0.00 0.00 0.00 1019.3
20260502113236 0 14 0.0 0.0 0.00 0.00 0.00 1019.3
20260502112734 0 13 0.0 0.0 0.00 0.00 0.00 1019.6
20260502112231 0 14 0.0 0.0 0.00 0.00 0.00 1019.7
20260502111728 0 13 0.0 0.0 0.00 0.00 0.00 1019.7
20260502111226 0 14 0.0 0.0 0.00 0.00 0.00 1019.6
20260502110723 0 13 0.0 0.0 0.00 0.00 0.00 1019.4
20260502110221 0 7 0.0 0.0 0.00 0.00 0.00 1019.6
20260502105719 0 5 0.0 0.0 0.00 0.00 0.00 1019.5
20260502105215 0 6 0.0 0.0 0.00 0.00 0.00 1019.6
20260502104712 0 6 0.0 0.0 0.00 0.00 0.00 1019.5
20260502104210 0 6 0.0 0.0 0.00 0.00 0.00 1019.5
20260502103707 0 6 0.0 0.0 0.00 0.00 0.00 1019.4
20260502103205 0 6 0.0 0.0 0.00 0.00 0.00 1019.5
20260502102701 0 6 0.0 0.0 0.00 0.00 0.00 1019.4
20260502102158 0 6 0.0 0.0 0.00 0.00 0.00 1019.7
20260502101656 0 7 0.0 0.0 0.00 0.00 0.00 1019.7
20260502101154 0 11 0.0 0.0 0.00 0.00 0.00 1019.5
20260502100652 0 11 0.0 0.0 0.00 0.00 0.00 1019.7
20260502100150 0 23 0.0 0.0 0.00 0.00 0.00 1019.7
20260502091124 0 6 0.0 0.0 0.00 0.00 0.00 1019.7
20260502090621 0 6 0.0 0.0 0.00 0.00 0.00 1019.8
20260502090119 0 8 0.0 0.0 0.00 0.00 0.00 1019.8
20260502071516 0 4 0.0 0.0 0.00 0.00 0.00 1019.2
20260502071014 0 19 0.0 1.0 0.00 0.00 0.00 1019.3
20260502070512 0 25 0.0 1.0 0.00 0.00 0.00 1019.4
20260502070010 0 46 2.0 2.0 0.00 0.00 0.00 1019.4
20260502065508 0 27 1.0 1.0 0.00 0.00 0.00 1019.4
20260502065006 0 21 0.0 0.0 0.00 0.00 0.00 1019.5
20260502064504 0 11 0.0 0.0 0.00 0.00 0.00 1019.5
20260502064000 0 9 0.0 0.0 0.00 0.00 0.00 1019.6
20260502063459 0 11 0.0 0.0 0.00 0.00 0.00 1019.4
20260502062955 0 2 1.0 1.0 0.00 0.00 0.00 1019.6
20260502062452 0 12 0.0 0.0 0.00 0.00 0.00 1019.9
20260502061951 0 2 0.0 1.0 0.00 0.00 0.00 1019.7
20260502061449 0 0 0.0 1.0 0.00 0.00 0.00 1019.7
20260502060944 0 3 0.0 1.0 0.00 0.00 0.00 1019.8
20260502060440 0 3 0.0 1.0 0.00 0.00 0.00 1019.8
20260502055937 0 3 0.0 1.0 0.00 0.00 0.00 1019.9
20260502055435 0 5 0.0 0.0 0.00 0.00 0.00 1019.9
20260502054929 0 5 0.0 0.0 0.00 0.00 0.00 1019.7
20260502054426 0 5 0.0 0.0 0.00 0.00 0.00 1019.8
20260502053924 0 5 0.0 0.0 0.00 0.00 0.00 1019.6
20260502053421 0 4 0.0 0.0 0.00 0.00 0.00 1019.9
20260502052918 0 4 0.0 0.0 0.00 0.00 0.00 1019.7
20260502052416 0 4 0.0 0.0 0.00 0.00 0.00 1020.0
20260502051914 0 1 0.0 0.0 0.00 0.00 0.00 1019.8
20260502051412 0 359 0.0 0.0 0.00 0.00 0.00 1019.7
20260502050909 0 4 0.0 1.0 0.00 0.00 0.00 1019.8
20260502050405 0 5 0.0 0.0 0.00 0.00 0.00 1019.9